Regional Weather Roundup
Issued by NWS Binghamton, NY

Home | Current Version | Previous Version | Text Only | Print | Product List | Glossary On
Versions: 1 2 3 4 5 6 7 8 9 10 11 12 13 14 15 16 17 18 19 20 21 22 23 24 25 26 27 28 29 30 31 32 33 34 35 36 37 38 39 40 41 42 43 44 45 46 47 48 49 50
000
ASUS41 KBGM 020510
RWRBGM
RWRBGM
BINGHAMTON REGIONAL WEATHER ROUNDUP
NATIONAL WEATHER SERVICE BINGHAMTON NY
100 AM EDT THU OCT 02 2014

Note: "fair" indicates few or no clouds below 12,000 feet with no
significant weather and/or obstructions to visibility.

* = Station(s) that does not report precipitation, such as rain,
snow, etc, also no thunder or fog.

!NYZ009-015>018-022>025-036-037-044>046-055>057-062-020600
...CENTRAL NEW YORK...

CITY           SKY/WX    TMP DP  RH WIND       PRES   REMARKS
BINGHAMTON     CLEAR     54  52  93 NE7       30.11S
CORTLAND       FAIR      50  50 100 NE5       30.12S
DANSVILLE      CLOUDY    59  56  89 E5        30.09F
ELMIRA         PTCLDY    58  57  97 E5        30.09S
ITHACA         CLEAR     55  54  97 E5        30.11F
HAMILTON       MOCLDY    52  50  93 CALM      30.13S
MONTICELLO     MOCLDY    55  54  94 E6        30.12S
NORWICH        CLOUDY    50  48  93 CALM      30.13S
ONEONTA        MOCLDY    55  54  94 E3        30.12S
PENN YAN       CLOUDY    60  58  92 SW3       30.10S FOG
ROME           CLEAR     53  51  93 CALM      30.13S
SIDNEY         FOG       55  55 100 CALM      30.12R VSB 1/4
SYRACUSE       PTCLDY    55  52  89 E6        30.09F
$$

!PAZ038>040-043-044-047-048-072-020600
...NORTHEAST PENNSYLVANIA...

CITY           SKY/WX    TMP DP  RH WIND       PRES   REMARKS
HAZLETON       FOG       52  52 100 CALM      30.14S VSB 1/2
SCRANTON       MOCLDY    57  54  89 E3        30.10S
$$
&&
KEY
WCI = WIND CHILL INDEX
VSB = VISIBILITY
HX  = HEAT INDEX
$$



USA.gov is the U.S. government's official web portal to all federal, state and local government web resources and services.